User: anonymous   Login
Location: Unspecified
(0.0000°N, 0.0000°E)
Time: 03:18:24
(UTC+01:00)
Language:

Iridium 4 Rocket - Orbit

View from above orbital plane
View from above orbital plane
View from above satellite
View from above satellite

Ground track
Ground track

The orbit data is extracted from the following two-line orbital elements,

1 24797U 97020F   17343.94566326 +.00000167 +00000-0 +29343-4 0  9995
2 24797 086.8952 288.9764 0227660 091.3359 335.2674 14.44022817083279
Epoch (UTC): 09 December 2017 22:41:45
Eccentricity: 0.0227660
inclination: 86.8952°
perigee height: 583 km
apogee height: 907 km
right ascension of ascending node: 288.9764°
argument of perigee: 91.3359°
revolutions per day: 14.44022817
mean anomaly at epoch: 335.2674°
orbit number at epoch: 8327

The dashed part of the orbit path shows where the satellite is in the earth's shadow,  

DLR